Home   Weather   Ghent   Past weeks

Flag for Belgium Past Weather in Ghent, Belgium — Yesterday and Last 2 Weeks

Now
64 °F

Mild.


Feels Like: 64 °F
Forecast: 57 / 68 °F
Wind: 5 mph from Northwest

Location: Munte

Current Time: Jul 24, 2017 at 7:05:21 pm

Latest Report: Jul 24, 2017 at 6:00 pm


Visibility: 13 mi

Pressure: 29.88 "Hg

Humidity: 63%

Dew Point: 51 °F

Location of GhentLocation

Past Weather in Ghent — Graph

°F

Ghent Temperature Yesterday

Maximum temperature yesterday: 71 °F (at 5:00 pm)
Minimum temperature yesterday: 54 °F (at 4:00 am)
Average temperature yesterday: 62 °F

High & Low Weather Summary for the Past Weeks

 TemperatureHumidityPressure
High87 °F (Jul 19, 4:00 pm)100% (Jul 11, 3:00 am)30.24 "Hg (Jul 11, 3:00 am)
Low47 °F (Jul 13, 5:00 am)33% (Jul 21, 4:00 pm)29.70 "Hg (Jul 12, 9:00 am)
Average65 °F71%29.97 "Hg
* Reported Jul 9 6:00 pm — Jul 24 6:00 pm, Ghent. Weather by CustomWeather, © 2017

Note: Actual official high and low records may vary slightly from our data, if they occured in-between our weather recording intervals... More about our weather records

Advertising

Ghent Weather History for the Previous 24 Hours

Scroll right to see more
 ConditionsComfort  
Time TempWeatherWind HumidityBarometerVisibility
6:00 pm
Mon, Jul 24
64 °FMild.5 mph63%29.88 "Hg12 mi
5:00 pm65 °FMild.6 mph70%29.86 "Hg12 mi
4:00 pm65 °FMild.5 mph73%29.86 "Hg12 mi
3:00 pm65 °FMild.5 mph72%29.85 "Hg12 mi
2:00 pm63 °FMild.5 mph77%29.85 "Hg12 mi
1:00 pm61 °FCool.2 mph94%29.83 "Hg12 mi
12:00 pm57 °FRain. Cloudy.2 mphN/AN/A7 mi
11:00 am58 °FLight rain. Cloudy.N/A99%29.83 "Hg6 mi
10:00 am58 °FLight rain. Cloudy.N/A100%29.83 "Hg4 mi
9:00 am57 °FLight rain. Cloudy.2 mph100%29.83 "Hg4 mi
8:00 am56 °FCool.N/A99%29.83 "Hg5 mi
7:00 am56 °FCool.N/A100%29.83 "Hg6 mi
6:00 am56 °FCool.2 mph99%29.83 "Hg7 mi
5:00 am56 °FCool.N/A100%29.83 "Hg9 mi
4:00 am58 °FCool.2 mph96%29.84 "Hg11 mi
3:00 am58 °FCool.N/A93%29.85 "Hg12 mi
2:00 am58 °FCool.2 mph92%29.86 "Hg12 mi
1:00 am59 °FLight rain. Overcast.3 mph89%29.88 "Hg12 mi
12:00 am58 °FLight rain. Overcast.N/A93%29.89 "Hg10 mi
11:00 pm
Sun, Jul 23
61 °FLight rain. Overcast.2 mph72%29.90 "Hg12 mi
10:00 pm63 °FMild.3 mph61%29.90 "Hg12 mi
9:00 pm65 °FMild.5 mph55%29.90 "Hg12 mi
8:00 pm67 °FMild.3 mph50%29.90 "Hg12 mi
7:00 pm68 °FMild.6 mph47%29.90 "Hg12 mi
Weather by CustomWeather, © 2017

See weather overviewHow to use our weather pages